This is the latest recevied weather packets stored in our database for station/object W2EH. If no packets are shown the sender has not sent any weather packets the latest 10 day(s).
| Time | Temp. | Humidity | Pressure | Rain* | Wind** | Luminosity | Snow |
|---|---|---|---|---|---|---|---|
| 1777839446 | 26.67° C | 35% | 1018.6 hPa | 0 mm | - | 838 W/m² | - |
| 1777839144 | 26.67° C | 37% | 1018.4 hPa | 0 mm | - | 851 W/m² | - |
| 1777838840 | 26.67° C | 36% | 1018.7 hPa | 0 mm | - | 852 W/m² | - |
| 1777838536 | 26.67° C | 32% | 1018.7 hPa | 0 mm | - | 862 W/m² | - |
| 1777838233 | 26.67° C | 35% | 1018.8 hPa | 0 mm | - | 874 W/m² | - |
| 1777837930 | 26.67° C | 35% | 1019 hPa | 0 mm | - | 880 W/m² | - |
| 1777837627 | 26.67° C | 36% | 1018.9 hPa | 0 mm | - | 889 W/m² | - |
| 1777837323 | 26.11° C | 37% | 1018.9 hPa | 0 mm | - | 884 W/m² | - |
| 1777837020 | 26.11° C | 35% | 1019 hPa | 0 mm | - | 902 W/m² | - |
| 1777836715 | 26.11° C | 35% | 1019.1 hPa | 0 mm | - | 912 W/m² | - |
| 1777836411 | 26.67° C | 34% | 1019.2 hPa | 0 mm | - | 923 W/m² | - |
| 1777836107 | 26.67° C | 32% | 1019.5 hPa | 0 mm | - | 915 W/m² | - |
| 1777835803 | 26.11° C | 30% | 1019.5 hPa | 0 mm | - | 928 W/m² | - |
| 1777835501 | 26.11° C | 34% | 1019.5 hPa | 0 mm | - | 935 W/m² | - |
| 1777835198 | 26.11° C | 34% | 1019.7 hPa | 0 mm | - | 933 W/m² | - |
| 1777834894 | 26.11° C | 34% | 1019.6 hPa | 0 mm | - | 941 W/m² | - |
| 1777834591 | 26.11° C | 36% | 1019.7 hPa | 0 mm | - | 908 W/m² | - |
| 1777834286 | 25.56° C | 35% | 1019.8 hPa | 0 mm | - | 923 W/m² | - |
| 1777833981 | 26.11° C | 36% | 1019.8 hPa | 0 mm | - | 915 W/m² | - |
| 1777833678 | 26.11° C | 39% | 1020 hPa | 0 mm | - | 930 W/m² | - |
| 1777833375 | 26.11° C | 39% | 1020.1 hPa | 0 mm | - | 935 W/m² | - |
| 1777833072 | 26.11° C | 35% | 1020 hPa | 0 mm | - | 943 W/m² | - |
| 1777832771 | 25.56° C | 39% | 1020.1 hPa | 0 mm | - | 927 W/m² | - |
| 1777832468 | 25.56° C | 38% | 1020.4 hPa | 0 mm | - | 938 W/m² | - |
| 1777832165 | 25.56° C | 38% | 1020.5 hPa | 0 mm | - | 938 W/m² | - |
* Rain latest hour (hover to see other rain measurements)
** Current wind speed in m/s (hover to see current wind gust speed)